GLOBALSTAR M081

Last updated on Mon Sep 21 2026 00:03:12 GMT+0000 (Coordinated Universal Time)

1 37743U 11033E 26263.41391508 -.00000077 00000+0 15037-3 0 9995 2 37743 51.9943 265.7077 0000215 79.3848 68.1840 12.62266420701969
UTC large
Height (km)
Speed (km/s)
/
Latitude / Longitude
Inclination (degrees)
Orbital Period (minutes)
Azimuth
Elevation
Range (km)
Doppler Factor

Next 0 passes for location: London (51.5072 / 0.1276)

No passes found over London.
GLOBALSTAR M081